Flag for Brazil Weather past 2 weeks in Rio Grande, Rio Grande do Sul, Brazil

Now
66 °F

Clear.


Feels Like: 66 °F
Forecast: 60 / 74 °F
Wind: 8 mph from East

Location: Porto Alegre Aero-Porto

Current Time: Apr 25, 2015 at 9:11:21 PM

Latest Report: Apr 25, 2015 at 8:00 PM


Visibility: 10 mi

Pressure: 30.15 "Hg

Humidity: 78%

Dew point: 59 °F

Location of Rio GrandeLocation

Historic Weather in Rio Grande — Graph

°F

Rio Grande temperature yesterday

Maximum temperature yesterday: 77 °F (at 2:00 PM)
Minimum temperature yesterday: 63 °F (at 2:00 AM)
Average temperature yesterday: 68 °F

Past Weeks' High & Low Weather Summary

 TemperatureHumidityPressure
High88 °F (Apr 14, 4:00 PM)100% (Apr 11, 5:00 AM)30.21 "Hg (Apr 11, 5:00 AM)
Low55 °F (Apr 19, 5:00 AM)24% (Apr 12, 2:00 PM)29.77 "Hg (Apr 20, 3:00 PM)
Average71 °F82%30.00 "Hg
* Reported Apr 10 7:00 PM — Apr 25 7:00 PM, Rio Grande, Weather by CustomWeather, © 2015

Note: Actual official high and low records may vary slightly from our data, if they occured in-between our weather recording intervals... More about our weather records

Advertising

Rio Grande weather history for previous 24 hours

 ConditionsComfort  
Time TempWeatherWind HumidityBarometerVisibility
7:00 PM
Sat, Apr 25
68 °FClear.6 mph78%30.12 "Hg10 mi
6:00 PM73 °FPassing clouds.5 mph61%30.12 "HgN/A
5:00 PM77 °FPassing clouds.5 mph51%30.12 "HgN/A
4:00 PM77 °FScattered clouds.3 mph51%30.12 "HgN/A
3:00 PM77 °FPartly sunny.6 mph54%30.12 "HgN/A
2:00 PM77 °FPartly sunny.7 mph57%30.15 "HgN/A
1:00 PM73 °FPartly sunny.8 mph65%30.15 "HgN/A
12:00 PM73 °FPartly sunny.6 mph69%30.18 "HgN/A
11:00 AM70 °FBroken clouds.6 mph83%30.21 "HgN/A
10:00 AM68 °FBroken clouds.6 mph88%30.15 "HgN/A
9:00 AM66 °FPartly sunny.6 mph94%30.21 "Hg5 mi
8:00 AM64 °FPartly sunny.5 mph94%30.18 "Hg5 mi
7:00 AM63 °FPartly sunny.5 mph100%30.18 "Hg4 mi
6:00 AM64 °FFog.7 mph100%30.15 "Hg3 mi
5:00 AM64 °FFog.6 mph100%30.15 "Hg3 mi
4:00 AM64 °FPassing clouds.5 mph94%30.12 "Hg4 mi
3:00 AM63 °FFog.1 mph100%30.15 "Hg3 mi
2:00 AM63 °FFog.2 mph94%30.15 "Hg3 mi
1:00 AM66 °FFog.2 mph94%30.15 "Hg3 mi
12:00 AM64 °FFog.2 mph94%30.15 "Hg3 mi
11:00 PM
Fri, Apr 24
64 °FPassing clouds.2 mph94%30.15 "Hg5 mi
10:00 PM64 °FPassing clouds.3 mph94%30.15 "HgN/A
9:00 PM66 °FClear.2 mph88%30.12 "Hg10 mi
Weather by CustomWeather, © 2015

See weather overviewHow to use our weather pages